Flag for Kuwait Weather past 2 weeks in Kuwait City, Kuwait

93 °F


Feels Like: 91 °F
Forecast: 80 / 97 °F
Wind: No wind

Location: Kuwait International Airport

Current Time: Oct 10, 2015 at 6:23:20 PM

Latest Report: Oct 10, 2015 at 6:00 PM

Visibility: 10 mi

Pressure: 29.83 "Hg

Humidity: 28%

Dew point: 55 °F

Historic Weather in Kuwait City — Graph


Kuwait City temperature yesterday

Maximum temperature yesterday: 102 °F (at 3:30 PM)
Minimum temperature yesterday: 84 °F (at 2:00 AM)
Average temperature yesterday: 93 °F

Past Weeks' High & Low Weather Summary

High113 °F (Oct 7, 1:00 PM)94% (Oct 1, 3:30 AM)30.04 "Hg (Oct 1, 3:30 AM)
Low72 °F (Sep 30, 6:00 AM)7% (Sep 25, 5:00 PM)29.68 "Hg (Sep 25, 5:00 PM)
Average93 °F31%29.82 "Hg
* Reported Sep 25 5:00 PM — Oct 10 5:00 PM, Kuwait City, Weather by CustomWeather, © 2015

Note: Actual official high and low records may vary slightly from our data, if they occured in-between our weather recording intervals... More about our weather records


Kuwait City weather history for previous 24 hours

Time TempWeatherWind HumidityBarometerVisibility
5:00 PM
Sat, Oct 10
95 °FSunny.3 mph25%29.83 "Hg10 mi
4:30 PM97 °FSunny.5 mph22%29.83 "Hg10 mi
3:59 PM97 °FSunny.5 mph22%29.83 "Hg10 mi
3:30 PM99 °FSunny.12 mph19%29.83 "Hg10 mi
3:00 PM99 °FSunny.9 mph19%29.83 "Hg10 mi
2:30 PM99 °FSunny.12 mph19%29.83 "Hg10 mi
2:00 PM99 °FSunny.9 mph19%29.83 "Hg10 mi
1:00 PM99 °FSunny.14 mph21%29.83 "Hg10 mi
12:30 PM97 °FSunny.14 mph20%29.86 "Hg10 mi
12:00 PM97 °FSunny.15 mph20%29.86 "Hg10 mi
11:30 AM95 °FSunny.10 mph23%29.89 "Hg10 mi
11:00 AM95 °FSunny.12 mph23%29.89 "Hg10 mi
10:30 AM95 °FSunny.12 mph23%29.89 "Hg10 mi
10:00 AM93 °FSunny.10 mph24%29.92 "Hg10 mi
9:30 AM93 °FSunny.10 mph26%29.92 "Hg10 mi
9:00 AM91 °FSunny.12 mph28%29.92 "Hg10 mi
8:30 AM90 °FSunny.9 mph29%29.92 "Hg10 mi
8:00 AM88 °FSunny.9 mph33%29.92 "Hg10 mi
7:00 AM86 °FSunny.12 mph38%29.89 "Hg10 mi
6:00 AM84 °FSunny.10 mph40%29.86 "Hg10 mi
5:30 AM84 °FClear.10 mph40%29.86 "Hg10 mi
5:00 AM86 °FClear.12 mph35%29.83 "Hg10 mi
4:30 AM86 °FClear.15 mph33%29.83 "Hg10 mi
4:00 AM86 °FClear.14 mph31%29.83 "Hg10 mi
3:30 AM88 °FClear.12 mph29%29.83 "Hg10 mi
3:00 AM88 °FClear.12 mph29%29.83 "Hg10 mi
2:30 AM88 °FClear.12 mph29%29.83 "Hg10 mi
2:00 AM88 °FClear.9 mph29%29.83 "Hg10 mi
1:30 AM90 °FClear.9 mph27%29.83 "Hg10 mi
1:00 AM90 °FClear.10 mph27%29.83 "Hg10 mi
12:00 AM90 °FClear.10 mph27%29.83 "Hg10 mi
11:30 PM
Fri, Oct 9
91 °FClear.12 mph24%29.83 "Hg10 mi
11:00 PM91 °FClear.9 mph24%29.83 "Hg10 mi
10:30 PM91 °FClear.9 mph24%29.83 "Hg10 mi
10:00 PM93 °FClear.9 mph23%29.83 "Hg10 mi
9:00 PM93 °FClear.9 mph26%29.83 "Hg10 mi
8:30 PM93 °FClear.8 mph24%29.83 "Hg10 mi
8:00 PM95 °FClear.7 mph23%29.83 "Hg10 mi
7:30 PM95 °FClear.9 mph23%29.83 "Hg10 mi
7:00 PM97 °FClear.10 mph20%29.80 "Hg10 mi
6:30 PM97 °FClear.10 mph20%29.80 "Hg10 mi
Weather by CustomWeather, © 2015

See weather overviewHow to use our weather pages